Simultaneous Nadir Overpasses (SNOs) Predictions

Prediction of SNOs between GOES-16 and NOAA-20 Satellite Orbit:

Table of predicted SNOs for the next 14.0 days since TLE Epoch: 9/7/2018
Index Date Time (GOES-16) GOES-16 Lat,Lon NOAA-20 Lat,Lon Distance(km) Time Diff (sec)
1 09/07/2018 18:10:09 0.01, -75.20 0.90, -71.25 449.74 80
2 09/09/2018 06:31:57 -0.01, -75.19 0.26, -76.53 151.15 80
3 09/10/2018 06:10:33 -0.00, -75.20 -0.75, -72.00 365.54 80
4 09/11/2018 18:32:29 0.00, -75.21 -0.46, -77.30 237.92 80
5 09/12/2018 18:16:25 0.00, -75.21 0.55, -72.77 279.17 80
6 09/14/2018 06:38:13 -0.00, -75.22 0.61, -78.04 320.44 80
7 09/15/2018 06:16:49 -0.00, -75.23 -0.40, -73.51 196.91 80
8 09/16/2018 18:38:45 0.01, -75.25 -0.80, -78.81 405.61 80
9 09/17/2018 18:22:41 0.01, -75.27 0.21, -74.28 112.08 80
10 09/19/2018 06:44:29 -0.01, -75.29 0.95, -79.55 486.59 80
11 09/20/2018 06:23:04 -0.01, -75.30 -0.06, -75.02 31.43 80




NCC Satellite Simultaneous Nadir Overpasses (SNOs) Prediction Service
